{"data":{"norad_id":67248,"epoch":"2026-05-25T03:25:43.459104Z","epoch_age_seconds":52769,"freshness":"FRESH","line1":"1 67248U 25313A   26145.14286411  .00001206  00000+0  12456-3 0  9995","line2":"2 67248  97.5435 211.3000 0278847  51.0798 311.4914 14.67216872 21645","mean_motion":14.67216872,"eccentricity":0.0278847,"inclination_deg":97.5435,"raan_deg":211.3,"arg_perigee_deg":51.0798,"mean_anomaly_deg":311.4914,"bstar":0.00012456,"rev_number":2164,"period_min":98.145000066493,"perigee_km":473.43266975994,"apogee_km":866.5011972697,"semimajor_km":7048.1039335148,"source":"CELESTRAK","updated_at":"2026-05-25T13:38:06.824340Z"}}